sat.trackr.live / text

‹ back to catalog

STARLINK-34613

NORAD 65294 · 2025-184X

PAYLOAD ACTIVE UNKNOWN

§ Identity

Operator
Country
US
Launch date
2025-08-22
Launch site
AFWTR
Launch vehicle
Mass (kg)
RCS (m²)

Purposes: comms

External: N2YO · Heavens-Above · Gunter

§ Orbital elements

Epoch: 2026-09-20T10:32:08.035296Z

Period
93.91 min
Inclination
97.2848°
Eccentricity
0.0001048
Mean motion
15.33457261 rev/d
Perigee alt
464.8 km
Apogee alt
466.2 km
Semi-major
6,843.6 km
B*
3.4998e-4
RAAN
311.3833°
Arg perigee
108.2700°
Mean anomaly
251.8657°
Rev number
6,071

§ Raw data

STARLINK-346131 65294U 25184X   26263.43898189  .00011245  00000+0  34998-3 0  99932 65294  97.2848 311.3833 0001048 108.2700 251.8657 15.33457261 60714

JSON: /api/v1/satellites/65294 · /tle

For live sub-satellite position, see the globe view (requires WebGL).

§ Visibility from observer

Set your observer location to see the next 7 days of passes ≥ 10°. The values pass through the URL so the page stays shareable.

No JS? Fill the form by hand. The geolocation button needs JavaScript.